Date String (YYYY-MM-DD hh:mm:ss) UTC,Instrument flags,Ambient pressure (hPa),Sample flow (lpm),Bypass flow (lpm),Sample temperature (°C),Ambient temperature (°C),ASC tube jacket temperature (°C),LED temperature (°C),Box temperature (°C),Sample RH (%),Span deviation,Mass concentration (μg/m³),Mass concentration (μg/m³),Mass concentration (μg/m³)
DateTimeUTC,F1_M11,P_M11,Q1_M11,Q2_M11,T1_M11,T2_M11,T3_M11,T4_M11,T5_M11,U1_M11,ZSPAN_M11,X0_M11,X2_M11,X1_M11
2022-03-10 22:00:00,,0822.3,5.00,0.00,21.5,20.7,00.0,30.6,23.1,06.7,0000.3,0010.74,0008.34,0008.01
2022-03-10 22:01:00,,0822.3,4.99,0.00,21.5,20.7,00.0,30.6,23.1,06.8,0000.4,0010.80,0008.38,0008.02
2022-03-10 22:02:00,,0822.3,4.99,0.00,21.4,20.6,00.0,30.6,23.0,06.7,0000.2,0010.72,0008.38,0008.04
2022-03-10 22:03:00,,0822.3,5.01,0.00,21.4,20.6,00.0,30.6,23.0,06.9,-000.6,0010.82,0008.45,0008.08
2022-03-10 22:04:00,,0822.3,4.99,0.00,21.5,21.3,00.0,30.6,23.2,06.9,-000.7,0010.78,0008.46,0008.10
2022-03-10 22:05:00,,0822.4,5.01,0.00,21.6,22.2,00.0,30.6,23.6,06.8,-000.8,0010.81,0008.49,0008.13
2022-03-10 22:06:00,,0822.3,5.00,0.00,21.8,22.6,00.0,30.7,23.8,06.7,-001.0,0010.93,0008.51,0008.15
2022-03-10 22:07:00,,0822.3,4.99,0.00,21.9,22.4,00.0,30.7,23.9,06.5,-001.6,0011.06,0008.53,0008.14
2022-03-10 22:08:00,,0822.3,5.01,0.00,21.9,22.3,00.0,30.7,23.9,06.6,-001.4,0011.17,0008.55,0008.16
2022-03-10 22:09:00,,0822.3,5.00,0.00,22.0,22.1,00.0,30.8,23.9,06.6,-000.8,0011.27,0008.60,0008.18
2022-03-10 22:10:00,,0822.3,4.99,0.00,22.0,21.9,00.0,30.8,23.9,06.7,-000.7,0011.36,0008.60,0008.19
2022-03-10 22:11:00,,0822.3,5.01,0.00,21.9,21.7,00.0,30.8,23.7,06.8,-000.7,0011.40,0008.61,0008.20
2022-03-10 22:12:00,,0822.3,5.00,0.00,21.9,21.7,00.0,30.8,23.7,06.7,-000.9,0011.38,0008.62,0008.21
2022-03-10 22:13:00,,0822.4,5.00,0.00,21.9,21.6,00.0,30.8,23.6,06.7,-000.6,0011.42,0008.64,0008.22
2022-03-10 22:14:00,,0822.3,5.00,0.00,21.9,21.4,00.0,30.8,23.6,06.6,-000.4,0011.44,0008.65,0008.22
2022-03-10 22:15:00,,0822.3,4.99,0.00,21.8,21.2,00.0,30.8,23.5,06.6,-000.7,0011.50,0008.67,0008.22
2022-03-10 22:16:00,,0822.3,5.00,0.00,21.8,21.1,00.0,30.8,23.4,06.7,-000.5,0011.64,0008.72,0008.22
2022-03-10 22:17:00,,0822.3,4.99,0.00,21.8,21.1,00.0,30.8,23.4,06.7,-000.1,0011.65,0008.75,0008.22
2022-03-10 22:18:00,,0822.3,5.02,0.00,21.8,21.1,00.0,30.8,23.5,06.6,0000.5,0011.59,0008.74,0008.21
2022-03-10 22:19:00,,0822.3,5.00,0.00,21.8,21.1,00.0,30.8,23.5,06.8,0000.5,0011.45,0008.72,0008.20
2022-03-10 22:20:00,,0822.4,5.00,0.00,21.8,21.1,00.0,30.8,23.5,06.8,0000.1,0011.34,0008.69,0008.19
2022-03-10 22:21:00,,0822.3,4.99,0.00,21.8,21.0,00.0,30.8,23.5,06.8,-000.2,0011.24,0008.69,0008.20
2022-03-10 22:22:00,,0822.3,5.01,0.00,21.7,21.0,00.0,30.8,23.5,06.8,-000.3,0011.24,0008.71,0008.22
2022-03-10 22:23:00,,0822.3,5.01,0.00,21.7,21.0,00.0,30.8,23.5,07.1,0000.2,0011.37,0008.76,0008.24
2022-03-10 22:24:00,,0822.3,4.99,0.00,21.7,20.9,00.0,30.8,23.4,06.9,-000.2,0011.49,0008.77,0008.24
2022-03-10 22:25:00,,0822.3,4.99,0.00,21.7,20.9,00.0,30.8,23.3,06.9,-000.1,0011.49,0008.77,0008.22
2022-03-10 22:26:00,,0822.4,5.01,0.00,21.6,20.8,00.0,30.8,23.3,06.9,0000.5,0011.52,0008.79,0008.24
2022-03-10 22:27:00,,0822.4,5.01,0.00,21.6,20.9,00.0,30.7,23.3,07.1,0000.5,0011.55,0008.79,0008.25
2022-03-10 22:28:00,,0822.4,4.99,0.00,21.6,20.8,00.0,30.7,23.2,06.9,0000.6,0011.48,0008.77,0008.26
2022-03-10 22:29:00,,0822.5,5.00,0.00,21.6,20.8,00.0,30.7,23.2,06.7,0000.4,0011.41,0008.73,0008.25
2022-03-10 22:30:00,,0822.4,5.00,0.00,21.5,20.7,00.0,30.7,23.2,06.5,0000.3,0011.41,0008.70,0008.21
2022-03-10 22:31:00,,0822.3,5.01,0.00,21.5,20.7,00.0,30.7,23.1,06.7,0000.7,0011.39,0008.68,0008.18
2022-03-10 22:32:00,,0822.4,4.99,0.00,21.4,20.6,00.0,30.6,23.1,06.6,0000.9,0011.45,0008.63,0008.14
2022-03-10 22:33:00,,0822.4,5.02,0.00,21.4,20.6,00.0,30.6,23.1,06.7,0000.9,0011.53,0008.59,0008.10
2022-03-10 22:34:00,,0822.4,5.00,0.00,21.4,20.6,00.0,30.6,23.1,06.8,0000.8,0011.51,0008.51,0008.04
2022-03-10 22:35:00,,0822.3,5.00,0.00,21.4,20.5,00.0,30.6,23.0,07.1,0000.9,0012.07,0008.48,0008.00
2022-03-10 22:36:00,,0822.3,5.00,0.00,21.4,20.5,00.0,30.6,23.0,07.0,0001.2,0012.08,0008.47,0007.98
2022-03-10 22:37:00,,0822.4,5.01,0.00,21.3,20.5,00.0,30.5,22.9,06.8,0001.4,0011.98,0008.41,0007.95
2022-03-10 22:38:00,,0822.5,4.99,0.00,21.4,21.0,00.0,30.5,23.1,06.7,0001.5,0011.93,0008.36,0007.90
2022-03-10 22:39:00,,0822.4,5.01,0.00,21.5,21.9,00.0,30.6,23.4,06.5,0001.1,0012.02,0008.33,0007.83
2022-03-10 22:40:00,,0822.5,5.00,0.00,21.7,22.4,00.0,30.6,23.7,06.5,0001.4,0012.08,0008.34,0007.81
2022-03-10 22:41:00,,0822.6,5.00,0.00,21.7,22.1,00.0,30.6,23.6,06.4,0001.6,0012.18,0008.37,0007.82
2022-03-10 22:42:00,,0822.5,4.99,0.00,21.7,21.8,00.0,30.6,23.5,06.3,0001.6,0012.45,0008.39,0007.86
2022-03-10 22:43:00,,0822.5,5.01,0.00,21.7,21.6,00.0,30.6,23.4,06.3,0002.4,0012.35,0008.40,0007.87
2022-03-10 22:44:00,,0822.6,5.00,0.00,21.7,21.4,00.0,30.7,23.4,06.4,0002.6,0012.23,0008.41,0007.88
2022-03-10 22:45:00,,0822.5,5.00,0.00,21.7,21.2,00.0,30.6,23.3,06.5,0001.9,0012.34,0008.44,0007.89
2022-03-10 22:46:00,,0822.5,5.00,0.00,21.6,21.1,00.0,30.6,23.3,06.7,0002.2,0011.71,0008.42,0007.90
2022-03-10 22:47:00,,0822.5,5.00,0.00,21.6,21.0,00.0,30.6,23.2,06.9,0003.3,0011.76,0008.42,0007.91
2022-03-10 22:48:00,,0822.5,4.99,0.00,21.6,20.8,00.0,30.6,23.2,06.7,0003.2,0011.79,0008.42,0007.90
2022-03-10 22:49:00,,0822.4,5.00,0.00,21.5,20.8,00.0,30.6,23.2,06.7,0003.2,0011.64,0008.37,0007.90
2022-03-10 22:50:00,,0822.5,5.01,0.00,21.5,20.8,00.0,30.6,23.1,06.8,0003.3,0011.71,0008.35,0007.91
2022-03-10 22:51:00,,0822.6,5.00,0.00,21.5,20.8,00.0,30.6,23.1,06.7,0003.5,0011.79,0008.37,0007.93
2022-03-10 22:52:00,,0822.6,4.99,0.00,21.4,20.7,00.0,30.6,23.0,06.7,0003.3,0011.86,0008.37,0007.94
2022-03-10 22:53:00,,0822.6,4.99,0.00,21.4,20.6,00.0,30.6,23.0,07.0,0003.0,0011.71,0008.35,0007.91
2022-03-10 22:54:00,,0822.6,5.01,0.00,21.4,20.5,00.0,30.6,23.0,07.1,0002.2,0011.87,0008.37,0007.92
2022-03-10 22:55:00,,0822.7,5.00,0.00,21.3,20.5,00.0,30.5,22.9,07.0,0002.0,0012.43,0008.40,0007.93
2022-03-10 22:56:00,,0822.7,4.99,0.00,21.3,20.5,00.0,30.5,22.9,07.0,0001.6,0012.41,0008.40,0007.94
2022-03-10 22:57:00,,0822.7,5.00,0.00,21.3,20.5,00.0,30.5,23.0,06.8,0001.5,0012.35,0008.41,0007.95
2022-03-10 22:58:00,,0822.6,5.00,0.00,21.3,20.6,00.0,30.5,23.0,06.9,0001.2,0012.25,0008.43,0007.96
2022-03-10 22:59:00,,0822.6,5.01,0.00,21.4,20.6,00.0,30.5,23.1,07.1,0000.7,0012.24,0008.44,0007.99
